Location: Beekmeers
(50.8953°N, 3.6968°E)
Time: 01:41:27
(UTC+00:00)

IDEFIX/ARIANE 42P - Pass Details

Date: 23 May 2024
Orbit: 783 x 799 km, 98.5° (Epoch: 17 June)

Event Time Altitude Azimuth Distance (km) Brightness Sun altitude
Rises 01:17:04 0° 17° (NNE) 3,318 7.6 -15.5°
Reaches altitude 10° 01:19:28 10° 22° (NNE) 2,384 6.5 -15.3°
Maximum altitude 01:24:39 56° 101° (E) 949 3.0 -15.0°
Enters shadow 01:28:33 18° 175° (S) 1,898 4.0 -14.7°
